Tracking 35275 objects as of 9-Sep-2026
HD Live streaming from Space Station
objects crossing your sky now

SL-3 R/B

Track SL-3 R/B now!
10-day predictions


NORAD ID: 7575
Int'l Code: 1974-099B
Launch date: December 17, 1974
Source: Commonwealth of Independent States (former USSR) (CIS)
Launch site: PLESETSK MISSILE AND SPACE COMPLEX (PKMTR)

Note: This is a ROCKET BODY
Your satellite tracking list
Your tracking list is empty




NASA's NSSDC Master Catalog

Two Line Element Set (TLE):
1 07575U 74099B   26252.05045163 -.00000001  00000-0 -77671-5 0  9990
2 07575  81.2423 266.7465 0050913  72.0598 288.6115 14.11590498661816
Source of the keplerian elements: AFSPC